Location: Fort Wayne
(41.1310°N, 85.1290°W)
Time: 04:12:15
(UTC-04:00)

Gbstr 26 Del rocket - Visible Passes

Search period start: 30 July 2015 00:00
Search period end: 09 August 2015 00:00
Orbit: 494 x 1270 km, 51.8° (Epoch: 28 July)

Date Brightness Start Highest point End Pass type
(mag) Time Alt. Az. Time Alt. Az. Time Alt. Az.
30 Jul 4.3 00:40:07 10° WNW 00:43:42 39° WNW 00:43:42 39° WNW visible
30 Jul 4.3 22:48:48 10° NW 22:54:26 44° NNE 22:57:21 21° E visible
31 Jul 4.5 00:36:36 10° WNW 00:39:56 33° W 00:39:56 33° W visible
31 Jul 4.0 22:45:12 10° NW 22:50:59 51° NNE 22:53:38 25° E visible
01 Aug 4.8 00:33:09 10° WNW 00:36:13 27° W 00:36:13 27° W visible
01 Aug 3.8 22:41:35 10° NW 22:47:30 61° NNE 22:49:57 29° E visible
02 Aug 5.1 00:29:46 10° WNW 00:32:33 22° W 00:32:33 22° W visible
02 Aug 3.5 22:38:00 10° NW 22:43:58 74° NNE 22:46:18 32° ESE visible
03 Aug 5.3 00:26:31 10° WNW 00:28:54 18° W 00:28:54 18° W visible
03 Aug 3.4 22:34:23 10° NW 22:40:25 89° NE 22:42:43 33° SE visible
04 Aug 5.6 00:23:28 10° W 00:25:19 15° WSW 00:25:19 15° WSW visible
04 Aug 3.5 22:30:48 10° WNW 22:36:48 74° SW 22:39:09 32° SE visible
05 Aug 5.8 00:20:53 10° W 00:21:45 11° WSW 00:21:45 11° WSW visible
05 Aug 3.8 22:27:15 10° WNW 22:33:10 59° SW 22:35:39 28° SSE visible
06 Aug 4.1 22:23:43 10° WNW 22:29:29 47° SW 22:32:12 24° SSE visible
07 Aug 4.6 22:20:15 10° WNW 22:25:46 37° SW 22:28:48 19° S visible
08 Aug 5.0 22:16:52 10° WNW 22:22:00 29° SW 22:25:26 14° S visible
